Weather History for Auburn, IN

Change the Weather History Date:

Monday, February 4, 2013

  Actual Average (KFWA) Record (KFWA)
Temperature  
Mean Temperature 22 °F 26 °F  
Max Temperature 26 °F 34 °F 58 °F (1909)
Min Temperature 17 °F 18 °F -12 °F (1985)
Degree Days  
Heating Degree Days 44 39  
Month to date heating degree days 157  
Since 1 July heating degree days 3728  
Cooling Degree Days 0 0  
Month to date cooling degree days 0  
Year to date cooling degree days 0  
Moisture  
Dew Point 18 °F    
Average Humidity 84    
Maximum Humidity 93    
Minimum Humidity 74    
Precipitation  
Precipitation 0.07 in 0.07 in 1.23 in (1971)
Month to date precipitation 0.28  
Year to date precipitation 2.54  
Snow  
Snow 0.00 in 0.30 in 4.20 in (1954)
Month to date snowfall 1.3  
Since 1 July snowfall 22.0  
Snow Depth -    
Sea Level Pressure  
Sea Level Pressure 29.92 in    
Wind  
Wind Speed 4 mph (East)    
Max Wind Speed 9 mph    
Max Gust Speed -    
Visibility 5 miles    
Events Snow    
T = Trace of Precipitation, MM = Missing Value Source: NWS Daily Summary

Daily Weather History Graph

Daily Weather History Graph

Search for Another Location

Airport:

Trip Planner

Search our weather history database for the weather conditions in past years. The results will help you decide how hot, cold, wet, or windy it might be!

Date:

Astronomy

Feb. 04, 2013 Rise Set
Actual Time 7:48 AM EST 6:00 PM EST
Civil Twilight 7:19 AM EST 6:29 PM EST
Nautical Twilight 6:46 AM EST 7:02 PM EST
Astronomical Twilight 6:13 AM EST 7:35 PM EST
Moon 2:23 AM EST (2/4) 12:22 PM EST (2/4)
Length of Visible Light 11h 10m
Length of Day
10h 12m
Last Quarter, 37% of the Moon is Illuminated
Feb 4
Last Quarter
Feb 10
New
Feb 17
First Quarter
Feb 25
Full
Mar 4
Last Quarter

Hourly Weather History & Observations

Time (EST) Temp. Windchill Dew Point Humidity Pressure Visibility Wind Dir Wind Speed Gust Speed Precip Events Conditions
12:15 AM 17.6 °F 8.2 °F 12.2 °F 79% 30.04 in 10.0 mi SW 6.9 mph - N/A   Overcast
12:35 AM 17.6 °F 9.3 °F 12.2 °F 79% 30.04 in 10.0 mi SW 5.8 mph - N/A   Overcast
12:55 AM 17.6 °F 10.7 °F 12.2 °F 79% 30.03 in 10.0 mi SW 4.6 mph - N/A   Mostly Cloudy
1:15 AM 17.6 °F 9.3 °F 12.2 °F 79% 30.03 in 10.0 mi SW 5.8 mph - N/A   Mostly Cloudy
1:35 AM 17.6 °F 12.3 °F 12.2 °F 79% 30.03 in 10.0 mi WSW 3.5 mph - N/A   Mostly Cloudy
1:55 AM 17.6 °F 10.7 °F 12.2 °F 79% 30.03 in 10.0 mi SW 4.6 mph - N/A   Scattered Clouds
2:15 AM 17.6 °F 9.3 °F 12.2 °F 79% 30.03 in 7.0 mi SW 5.8 mph - N/A   Scattered Clouds
2:35 AM 17.6 °F 12.3 °F 12.2 °F 79% 30.03 in 5.0 mi SW 3.5 mph - N/A Snow Light Snow
2:55 AM 17.6 °F 12.3 °F 12.2 °F 79% 30.02 in 4.0 mi SW 3.5 mph - N/A Snow Light Snow
3:15 AM 17.6 °F 12.3 °F 12.2 °F 79% 30.02 in 5.0 mi SSW 3.5 mph - N/A   Haze
3:35 AM 17.6 °F 12.3 °F 14.0 °F 86% 30.02 in 3.0 mi SW 3.5 mph - N/A Snow Light Snow
3:55 AM 17.6 °F 12.3 °F 14.0 °F 86% 30.01 in 3.0 mi SW 3.5 mph - N/A Snow Light Snow
4:15 AM 17.6 °F 12.3 °F 14.0 °F 86% 30.00 in 3.0 mi SSW 3.5 mph - N/A Snow Light Snow
4:35 AM 19.4 °F 14.3 °F 14.0 °F 80% 30.00 in 2.0 mi SSW 3.5 mph - N/A Snow Light Snow
6:15 AM 19.4 °F - 17.6 °F 93% 29.97 in 2.0 mi Calm Calm - N/A Snow Light Snow
6:35 AM 19.4 °F - 17.6 °F 93% 29.96 in 2.5 mi Calm Calm - N/A Snow Light Snow
6:55 AM 19.4 °F - 17.6 °F 93% 29.96 in 2.0 mi Calm Calm - N/A Snow Light Snow
7:35 AM 19.4 °F - 17.6 °F 93% 29.95 in 1.5 mi Calm Calm - N/A Snow Light Snow
7:55 AM 19.4 °F - 17.6 °F 93% 29.95 in 1.0 mi Calm Calm - 0.01 in Snow Snow
8:15 AM 19.4 °F - 17.6 °F 93% 29.95 in 0.5 mi Calm Calm - 0.01 in Snow Snow
8:35 AM 19.4 °F - 17.6 °F 93% 29.96 in 0.5 mi Calm Calm - 0.02 in Snow Snow
8:55 AM 21.2 °F - 17.6 °F 86% 29.96 in 0.5 mi Calm Calm - 0.03 in Snow Snow
9:15 AM 21.2 °F - 17.6 °F 86% 29.96 in 0.5 mi Calm Calm - 0.02 in Snow Snow
9:35 AM 21.2 °F 14.9 °F 17.6 °F 86% 29.95 in 0.8 mi East 4.6 mph - 0.03 in Snow Light Snow
9:55 AM 23.0 °F 17.0 °F 19.4 °F 86% 29.95 in 0.8 mi East 4.6 mph - 0.03 in Snow Light Snow
10:15 AM 23.0 °F 15.8 °F 19.4 °F 86% 29.93 in 1.2 mi East 5.8 mph - N/A Snow Light Snow
10:35 AM 23.0 °F 17.0 °F 19.4 °F 86% 29.92 in 1.5 mi East 4.6 mph - N/A Snow Light Snow
10:55 AM 24.8 °F 17.9 °F 19.4 °F 80% 29.92 in 1.2 mi East 5.8 mph - N/A Snow Light Snow
11:15 AM 24.8 °F 15.3 °F 19.4 °F 80% 29.90 in 2.5 mi ENE 9.2 mph - N/A Snow Light Snow
11:35 AM 24.8 °F 17.9 °F 19.4 °F 80% 29.91 in 7.0 mi East 5.8 mph - N/A   Overcast
11:55 AM 24.8 °F 16.9 °F 19.4 °F 80% 29.90 in 4.0 mi East 6.9 mph - N/A Snow Light Snow
12:15 PM 26.6 °F 19.1 °F 21.2 °F 80% 29.89 in 2.0 mi East 6.9 mph - N/A Snow Light Snow
12:35 PM 26.6 °F 20.0 °F 21.2 °F 80% 29.88 in 7.0 mi ESE 5.8 mph - N/A Snow Light Snow
12:55 PM 26.6 °F 20.0 °F 21.2 °F 80% 29.87 in 7.0 mi East 5.8 mph - N/A Snow Light Snow
1:35 PM 26.6 °F 22.6 °F 19.4 °F 74% 29.85 in 7.0 mi East 3.5 mph - N/A   Overcast
1:55 PM 26.6 °F 22.6 °F 19.4 °F 74% 29.84 in 7.0 mi SE 3.5 mph - N/A   Overcast
2:15 PM 26.6 °F 22.6 °F 19.4 °F 74% 29.84 in 7.0 mi ESE 3.5 mph - N/A   Overcast
2:35 PM 26.6 °F - 21.2 °F 80% 29.84 in 7.0 mi Calm Calm - N/A   Overcast
2:55 PM 26.6 °F - 21.2 °F 80% 29.84 in 5.0 mi Calm Calm - N/A Snow Light Snow
3:15 PM 26.6 °F 21.2 °F 21.2 °F 80% 29.84 in 4.0 mi East 4.6 mph - N/A Snow Light Snow
3:35 PM 26.6 °F 22.6 °F 21.2 °F 80% 29.84 in 4.0 mi East 3.5 mph - N/A   Haze
3:55 PM 26.6 °F 21.2 °F 21.2 °F 80% 29.83 in 5.0 mi East 4.6 mph - N/A   Overcast
4:15 PM 26.6 °F 21.2 °F 21.2 °F 80% 29.84 in 5.0 mi ENE 4.6 mph - N/A   Overcast
4:35 PM 26.6 °F 22.6 °F 21.2 °F 80% 29.84 in 4.0 mi ENE 3.5 mph - N/A   Overcast
4:55 PM 24.8 °F 19.1 °F 21.2 °F 86% 29.84 in 4.0 mi NE 4.6 mph - N/A   Overcast
5:15 PM 24.8 °F 19.1 °F 21.2 °F 86% 29.84 in 4.0 mi NE 4.6 mph - N/A   Overcast
5:35 PM 24.8 °F 19.1 °F 21.2 °F 86% 29.84 in 4.0 mi ENE 4.6 mph - N/A   Overcast
5:55 PM 24.8 °F 19.1 °F 21.2 °F 86% 29.83 in 4.0 mi ENE 4.6 mph - N/A   Overcast
6:15 PM 24.8 °F 20.5 °F 21.2 °F 86% 29.83 in 5.0 mi East 3.5 mph - N/A   Overcast
6:35 PM 24.8 °F 19.1 °F 21.2 °F 86% 29.84 in 7.0 mi NNE 4.6 mph - N/A   Overcast
6:55 PM 24.8 °F 17.9 °F 21.2 °F 86% 29.84 in 5.0 mi NE 5.8 mph - N/A   Overcast
7:15 PM 24.8 °F 19.1 °F 21.2 °F 86% 29.85 in 5.0 mi NE 4.6 mph - N/A   Overcast
7:35 PM 24.8 °F - 21.2 °F 86% 29.86 in 5.0 mi Calm Calm - N/A   Overcast
7:55 PM 24.8 °F 20.5 °F 21.2 °F 86% 29.88 in 7.0 mi North 3.5 mph - N/A   Overcast
8:15 PM 24.8 °F 19.1 °F 21.2 °F 86% 29.88 in 7.0 mi North 4.6 mph - N/A   Overcast
8:35 PM 24.8 °F 20.5 °F 21.2 °F 86% 29.89 in 7.0 mi North 3.5 mph - N/A   Overcast
8:55 PM 24.8 °F 20.5 °F 21.2 °F 86% 29.89 in 7.0 mi NNE 3.5 mph - N/A   Overcast
9:15 PM 24.8 °F - 21.2 °F 86% 29.90 in 7.0 mi Calm Calm - N/A   Overcast
9:35 PM 24.8 °F 19.1 °F 21.2 °F 86% 29.90 in 7.0 mi North 4.6 mph - N/A   Overcast
10:15 PM 24.8 °F 20.5 °F 21.2 °F 86% 29.89 in 7.0 mi NNE 3.5 mph - N/A   Overcast
10:55 PM 23.0 °F - 21.2 °F 93% 29.89 in 7.0 mi Calm Calm - N/A   Overcast
11:15 PM 23.0 °F 18.4 °F 19.4 °F 86% 29.90 in 7.0 mi North 3.5 mph - N/A   Overcast
11:35 PM 23.0 °F 18.4 °F 21.2 °F 93% 29.92 in 7.0 mi NW 3.5 mph - N/A   Overcast
11:55 PM 23.0 °F - 21.2 °F 93% 29.90 in 5.0 mi Calm Calm - N/A   Overcast